BTK7051 WIHH-WIPP

Flight info

Callsign BTK7051
Flight time N/A
Altitude 28000
Route GOMEL T10 ENSAV
Aircraft A320/M-SDE3FGHIRWY/LB1

Departure

Time 2026-05-08 06:39
Airport Halim Perdanakusuma International Airport (WIHH)

Arrival

Time N/A
Airport Sultan Mahmud Badaruddin II Airport (WIPP)
Time Latitude Longitude Altitude Speed Heading
2026-05-08 06:12 -6.26646 106.88530 95 ft 0 kts 336°
2026-05-08 06:31 -6.26656 106.88534 95 ft 4 kts 337°
2026-05-08 06:31 -6.26681 106.88543 94 ft 4 kts 352°
2026-05-08 06:31 -6.26703 106.88541 94 ft 4 kts 52°
2026-05-08 06:32 -6.26707 106.88536 94 ft 0 kts 65°
2026-05-08 06:34 -6.26701 106.88549 96 ft 6 kts 65°
2026-05-08 06:34 -6.26674 106.88607 94 ft 10 kts 65°
2026-05-08 06:34 -6.26643 106.88675 94 ft 13 kts 65°
2026-05-08 06:34 -6.26602 106.88764 95 ft 14 kts 65°
2026-05-08 06:35 -6.26557 106.88861 95 ft 17 kts 65°
2026-05-08 06:35 -6.26506 106.88971 95 ft 18 kts 68°
2026-05-08 06:35 -6.26522 106.89090 94 ft 18 kts 109°
2026-05-08 06:35 -6.26566 106.89207 96 ft 18 kts 110°
2026-05-08 06:36 -6.26561 106.89328 96 ft 19 kts 66°
2026-05-08 06:36 -6.26503 106.89455 94 ft 21 kts 65°
2026-05-08 06:36 -6.26439 106.89593 95 ft 22 kts 65°
2026-05-08 06:36 -6.26372 106.89737 95 ft 24 kts 65°
2026-05-08 06:37 -6.26303 106.89889 97 ft 24 kts 65°
2026-05-08 06:37 -6.26231 106.90045 97 ft 25 kts 65°
2026-05-08 06:37 -6.26156 106.90207 97 ft 21 kts 61°
2026-05-08 06:37 -6.26083 106.90276 97 ft 11 kts 88°
2026-05-08 06:38 -6.26124 106.90274 97 ft 6 kts 238°
2026-05-08 06:38 -6.26143 106.90235 97 ft 8 kts 245°
2026-05-08 06:38 -6.26218 106.90073 97 ft 52 kts 245°
2026-05-08 06:38 -6.26470 106.89521 95 ft 118 kts 245°
2026-05-08 06:39 -6.26894 106.88608 99 ft 168 kts 245°
2026-05-08 06:39 -6.27396 106.87519 663 ft 171 kts 247°
2026-05-08 06:39 -6.27884 106.86451 1385 ft 170 kts 247°
2026-05-08 06:39 -6.28383 106.85354 2040 ft 174 kts 246°
2026-05-08 06:40 -6.28914 106.84187 2338 ft 194 kts 246°
2026-05-08 06:40 -6.29455 106.82858 2560 ft 217 kts 257°
2026-05-08 06:40 -6.29592 106.81261 2832 ft 243 kts 268°
2026-05-08 06:40 -6.29661 106.79512 3217 ft 265 kts 267°
2026-05-08 06:41 -6.29742 106.77620 3584 ft 274 kts 266°
2026-05-08 06:41 -6.29728 106.75697 3866 ft 280 kts 280°
2026-05-08 06:41 -6.29044 106.73878 4787 ft 281 kts 301°
2026-05-08 06:41 -6.28009 106.72202 5680 ft 283 kts 302°
2026-05-08 06:42 -6.26943 106.70521 6517 ft 287 kts 302°
2026-05-08 06:42 -6.25924 106.68782 7325 ft 291 kts 299°
2026-05-08 06:42 -6.24958 106.66979 8121 ft 295 kts 298°
2026-05-08 06:42 -6.24004 106.65136 8911 ft 298 kts 297°
2026-05-08 06:43 -6.23047 106.63272 9677 ft 302 kts 297°
2026-05-08 06:43 -6.22077 106.61388 10434 ft 305 kts 297°
2026-05-08 06:43 -6.21065 106.59439 10748 ft 326 kts 298°
2026-05-08 06:43 -6.19973 106.57351 10902 ft 349 kts 298°
2026-05-08 06:44 -6.18817 106.55152 11302 ft 361 kts 298°
2026-05-08 06:44 -6.17633 106.52909 11910 ft 365 kts 298°
2026-05-08 06:44 -6.16436 106.50645 12555 ft 368 kts 298°
2026-05-08 06:44 -6.15227 106.48361 13169 ft 372 kts 298°
2026-05-08 06:45 -6.14006 106.46053 13761 ft 376 kts 298°
2026-05-08 06:45 -6.12770 106.43715 14338 ft 380 kts 298°
2026-05-08 06:45 -6.11527 106.41359 14917 ft 384 kts 298°
2026-05-08 06:45 -6.10221 106.39010 15468 ft 387 kts 304°
2026-05-08 06:46 -6.08552 106.36928 15983 ft 390 kts 315°
2026-05-08 06:46 -6.06456 106.35188 16505 ft 393 kts 327°
2026-05-08 06:46 -6.04058 106.33860 17010 ft 395 kts 334°
2026-05-08 06:46 -6.01590 106.32605 17520 ft 398 kts 334°
2026-05-08 06:47 -5.99116 106.31335 18003 ft 402 kts 334°
2026-05-08 06:47 -5.96615 106.30042 18485 ft 405 kts 334°
2026-05-08 06:47 -5.94101 106.28739 18946 ft 408 kts 333°
2026-05-08 06:47 -5.91571 106.27424 19412 ft 411 kts 333°
2026-05-08 06:48 -5.89025 106.26103 19860 ft 413 kts 333°
2026-05-08 06:48 -5.86461 106.24776 20296 ft 416 kts 333°
2026-05-08 06:48 -5.83880 106.23444 20717 ft 418 kts 333°
2026-05-08 06:48 -5.81284 106.22104 21128 ft 421 kts 333°
2026-05-08 06:49 -5.78674 106.20756 21543 ft 423 kts 333°
2026-05-08 06:49 -5.76050 106.19401 21926 ft 425 kts 333°
2026-05-08 06:49 -5.73410 106.18040 22309 ft 428 kts 333°
2026-05-08 06:49 -5.70756 106.16673 22687 ft 430 kts 333°
2026-05-08 06:50 -5.68086 106.15298 23035 ft 432 kts 333°
2026-05-08 06:50 -5.65404 106.13916 23390 ft 434 kts 333°
2026-05-08 06:50 -5.62710 106.12525 23734 ft 437 kts 333°
2026-05-08 06:50 -5.60003 106.11126 24080 ft 439 kts 333°
2026-05-08 06:51 -5.57283 106.09721 24406 ft 441 kts 333°
2026-05-08 06:51 -5.54550 106.08312 24731 ft 443 kts 333°
2026-05-08 06:51 -5.51806 106.06897 25047 ft 444 kts 333°
2026-05-08 06:51 -5.49049 106.05476 25350 ft 446 kts 333°
2026-05-08 06:52 -5.46280 106.04048 25649 ft 448 kts 333°
2026-05-08 06:52 -5.43507 106.02598 25933 ft 451 kts 330°
2026-05-08 06:52 -5.40938 106.00853 26209 ft 453 kts 322°
2026-05-08 06:52 -5.38462 105.98888 26486 ft 455 kts 322°
2026-05-08 06:53 -5.35978 105.96913 26763 ft 456 kts 322°
2026-05-08 06:53 -5.33487 105.94932 27042 ft 458 kts 322°
2026-05-08 06:53 -5.30989 105.92941 27317 ft 459 kts 322°
2026-05-08 06:53 -5.28484 105.90941 27579 ft 461 kts 322°
2026-05-08 06:54 -5.25969 105.88934 27785 ft 463 kts 322°
2026-05-08 06:54 -5.23468 105.86926 27839 ft 457 kts 322°
2026-05-08 06:54 -5.21000 105.84935 27841 ft 454 kts 322°
2026-05-08 06:54 -5.18511 105.82996 27841 ft 453 kts 324°
2026-05-08 06:55 -5.15985 105.81115 27841 ft 452 kts 325°
2026-05-08 06:55 -5.13426 105.79284 27841 ft 452 kts 326°
2026-05-08 06:55 -5.10848 105.77481 27841 ft 452 kts 326°
2026-05-08 06:55 -5.08347 105.75745 27841 ft 452 kts 326°
2026-05-08 06:56 -5.05777 105.73955 27841 ft 452 kts 326°
2026-05-08 06:56 -5.03192 105.72145 27840 ft 453 kts 326°
2026-05-08 06:56 -5.00620 105.70324 27841 ft 452 kts 326°
2026-05-08 06:56 -4.98057 105.68495 27841 ft 452 kts 326°
2026-05-08 06:57 -4.95497 105.66663 27841 ft 452 kts 326°
2026-05-08 06:57 -4.92938 105.64832 27841 ft 452 kts 326°
2026-05-08 06:57 -4.90375 105.63003 27841 ft 452 kts 326°
2026-05-08 06:57 -4.87810 105.61178 27841 ft 452 kts 326°
2026-05-08 06:58 -4.85273 105.59379 27841 ft 452 kts 326°
2026-05-08 06:58 -4.82704 105.57562 27839 ft 452 kts 326°
2026-05-08 06:58 -4.80136 105.55745 27838 ft 452 kts 326°
2026-05-08 06:58 -4.77570 105.53926 27836 ft 452 kts 326°
2026-05-08 06:59 -4.75005 105.52104 27834 ft 452 kts 326°
2026-05-08 06:59 -4.72442 105.50280 27833 ft 452 kts 326°
2026-05-08 06:59 -4.69878 105.48457 27832 ft 452 kts 326°
2026-05-08 06:59 -4.67313 105.46632 27832 ft 452 kts 326°
2026-05-08 07:00 -4.64748 105.44805 27833 ft 452 kts 326°
2026-05-08 07:00 -4.62181 105.42983 27833 ft 452 kts 326°
2026-05-08 07:00 -4.59613 105.41164 27832 ft 452 kts 326°
2026-05-08 07:00 -4.57044 105.39348 27831 ft 452 kts 326°
2026-05-08 07:01 -4.54475 105.37531 27831 ft 452 kts 326°
2026-05-08 07:01 -4.51907 105.35711 27831 ft 452 kts 326°
2026-05-08 07:01 -4.49340 105.33890 27831 ft 452 kts 326°
2026-05-08 07:01 -4.46773 105.32066 27832 ft 452 kts 326°
2026-05-08 07:02 -4.44208 105.30241 27833 ft 452 kts 326°
2026-05-08 07:02 -4.41645 105.28415 27834 ft 452 kts 326°
2026-05-08 07:02 -4.39081 105.26592 27834 ft 452 kts 326°
2026-05-08 07:02 -4.36515 105.24770 27833 ft 452 kts 326°
2026-05-08 07:03 -4.33948 105.22950 27832 ft 452 kts 326°
2026-05-08 07:03 -4.31375 105.21130 27833 ft 452 kts 326°
2026-05-08 07:03 -4.28812 105.19316 27832 ft 452 kts 326°
2026-05-08 07:03 -4.26245 105.17498 27833 ft 452 kts 326°
2026-05-08 07:04 -4.23674 105.15674 27833 ft 452 kts 326°
2026-05-08 07:04 -4.21113 105.13857 27833 ft 452 kts 326°
2026-05-08 07:04 -4.18579 105.12056 27834 ft 452 kts 326°
2026-05-08 07:04 -4.16015 105.10232 27834 ft 452 kts 326°
2026-05-08 07:05 -4.13439 105.08413 27840 ft 456 kts 328°
2026-05-08 07:05 -4.10641 105.06905 27842 ft 458 kts 339°
2026-05-08 07:05 -4.07617 105.05930 27841 ft 457 kts 349°
2026-05-08 07:05 -4.04479 105.05496 27842 ft 455 kts 357°
2026-05-08 07:06 -4.01321 105.05262 27841 ft 455 kts 357°
2026-05-08 07:06 -3.98311 105.05035 27841 ft 455 kts 357°